FW6627 Weather Reports


Display with metric or nautical units.
time (UTC)temp
F
wind
direction
speed
MPH
gust
MPH
rain 1hr
in
rain 24hr
in
rain mn
in
humidity
%
barometer
mb
20260510191555 86 83 0.0 2.0 0.00 0.00 0.00 39 1012.7
20260510190056 87 0 0.0 2.0 0.00 0.00 0.00 37 1012.8
20260510184539 87 0 0.0 1.0 0.00 0.00 0.00 39 1012.8
20260510183047 85 0 0.0 3.0 0.00 0.00 0.00 41 1012.9
20260510181542 85 0 0.0 1.0 0.00 0.00 0.00 40 1013.1
20260510180038 84 0 0.0 2.0 0.00 0.00 0.00 39 1013.1
20260510174535 84 0 0.0 1.0 0.00 0.00 0.00 45 1013.3
20260510173035 85 0 0.0 1.0 0.00 0.00 0.00 39 1013.1
20260510171542 84 0 0.0 1.0 0.00 0.00 0.00 42 1013.2
20260510170044 85 0 0.0 2.0 0.00 0.00 0.00 42 1013.3
20260510164540 85 0 0.0 2.0 0.00 0.00 0.00 41 1013.5
20260510163038 84 0 0.0 2.0 0.00 0.00 0.00 44 1013.5
20260510161541 84 0 0.0 2.0 0.00 0.00 0.00 44 1013.6
20260510160056 83 0 0.0 5.0 0.00 0.00 0.00 45 1013.5
20260510154552 82 83 0.0 2.0 0.00 0.00 0.00 47 1013.7
20260510153042 80 0 0.0 1.0 0.00 0.00 0.00 51 1013.8
20260510151537 79 0 0.0 1.0 0.00 0.00 0.00 49 1013.9
20260510150040 76 0 0.0 2.0 0.00 0.00 0.00 53 1013.7
20260510144548 74 0 0.0 1.0 0.00 0.00 0.00 57 1013.5
20260510143043 73 0 0.0 0.0 0.00 0.00 0.00 58 1013.4
20260510141541 71 0 0.0 1.0 0.00 0.00 0.00 63 1013.3
20260510140041 70 0 0.0 1.0 0.00 0.00 0.00 65 1013.2
20260510134545 68 0 0.0 0.0 0.00 0.00 0.00 71 1013.1
20260510133042 67 0 0.0 0.0 0.00 0.00 0.00 74 1013.2
20260510131537 66 0 0.0 0.0 0.00 0.00 0.00 78 1013.4
20260510130041 65 0 0.0 0.0 0.00 0.00 0.00 81 1013.6
20260510124545 62 0 0.0 0.0 0.00 0.00 0.00 88 1013.5
20260510123039 61 0 0.0 0.0 0.00 0.00 0.00 93 1013.5
20260510121540 59 0 0.0 0.0 0.00 0.00 0.00 95 1013.3
20260510120038 57 0 0.0 0.0 0.00 0.00 0.00 96 1013.0
20260510114534 56 0 0.0 0.0 0.00 0.00 0.00 96 1012.9
20260510113041 54 0 0.0 0.0 0.00 0.00 0.00 96 1012.6
20260510111541 53 0 0.0 0.0 0.00 0.00 0.00 96 1012.3
20260510110044 53 0 0.0 0.0 0.00 0.00 0.00 95 1012.2
20260510104540 52 0 0.0 0.0 0.00 0.00 0.00 95 1012.0
20260510103040 52 0 0.0 0.0 0.00 0.00 0.00 95 1011.9
20260510101536 52 0 0.0 0.0 0.00 0.00 0.00 95 1011.8
20260510100034 53 0 0.0 0.0 0.00 0.00 0.00 95 1011.8
20260510094554 53 0 0.0 0.0 0.00 0.00 0.00 95 1011.6
20260510093055 53 0 0.0 0.0 0.00 0.00 0.00 94 1011.8
20260510091544 53 0 0.0 0.0 0.00 0.00 0.00 94 1011.5
20260510090039 53 0 0.0 0.0 0.00 0.00 0.00 94 1011.3
20260510084535 53 0 0.0 0.0 0.00 0.00 0.00 94 1011.1
20260510083042 54 0 0.0 0.0 0.00 0.00 0.00 94 1010.9
20260510081543 54 0 0.0 0.0 0.00 0.00 0.00 93 1010.7
20260510080042 54 0 0.0 0.0 0.00 0.00 0.00 93 1010.7
20260510074538 55 0 0.0 0.0 0.00 0.00 0.00 93 1010.6
20260510073043 55 0 0.0 0.0 0.00 0.00 0.00 93 1010.3
20260510071547 56 0 0.0 0.0 0.00 0.00 0.00 92 1010.3
20260510070315 56 0 0.0 0.0 0.00 0.00 0.00 92 1010.1
20260510064539 56 0 0.0 0.0 0.00 0.00 0.00 92 1010.2
20260510063041 57 0 0.0 0.0 0.00 0.00 0.00 91 1010.1
20260510061541 57 0 0.0 0.0 0.00 0.00 0.00 91 1010.1
20260510060037 57 0 0.0 0.0 0.00 0.00 0.00 91 1010.1
20260510054535 57 0 0.0 0.0 0.00 0.00 0.00 91 1010.1
20260510053051 58 0 0.0 0.0 0.00 0.00 0.00 90 1010.0
20260510051547 58 0 0.0 0.0 0.00 0.00 0.00 90 1010.2
20260510050041 59 0 0.0 0.0 0.00 0.00 0.00 89 1010.1
20260510044540 59 0 0.0 0.0 0.00 0.00 0.00 88 1009.9
20260510043045 59 0 0.0 0.0 0.00 0.00 0.00 88 1010.2
20260510041538 59 0 0.0 0.0 0.00 0.00 0.00 88 1010.0
20260510040041 60 0 0.0 0.0 0.00 0.00 0.00 87 1010.1
20260510034541 60 0 0.0 0.0 0.00 0.00 0.00 86 1010.0
20260510033040 61 0 0.0 0.0 0.00 0.00 0.00 85 1009.8
20260510031546 61 0 0.0 0.0 0.00 0.00 0.00 84 1009.8
20260510030037 62 0 0.0 0.0 0.00 0.00 0.00 83 1009.7
20260510024538 62 0 0.0 0.0 0.00 0.00 0.00 82 1009.5
20260510023041 63 0 0.0 0.0 0.00 0.00 0.00 81 1009.4
20260510021547 64 0 0.0 0.0 0.00 0.00 0.00 80 1009.6
20260510020038 64 0 0.0 1.0 0.00 0.00 0.00 79 1009.2
20260510014536 64 0 0.0 1.0 0.00 0.00 0.00 78 1009.1
20260510013045 65 0 0.0 0.0 0.00 0.00 0.00 77 1009.0
20260510011544 66 0 0.0 0.0 0.00 0.00 0.00 76 1009.0
20260510010041 66 0 0.0 0.0 0.00 0.00 0.00 74 1008.7
20260510004543 67 0 0.0 0.0 0.00 0.00 0.00 71 1008.7
20260510003043 68 0 0.0 0.0 0.00 0.00 0.00 69 1008.6
20260510001543 69 0 0.0 0.0 0.00 0.00 0.00 66 1008.5
20260510000048 70 276 0.0 1.0 0.00 0.00 0.00 63 1008.3
20260509234542 72 0 0.0 0.0 0.00 0.00 0.00 61 1008.2
20260509233041 72 0 0.0 1.0 0.00 0.00 0.00 58 1008.1
20260509231544 73 0 0.0 2.0 0.00 0.00 0.00 57 1008.0
20260509230041 73 0 0.0 1.0 0.00 0.00 0.00 56 1007.9
20260509224540 74 0 0.0 2.0 0.00 0.00 0.00 56 1007.9
20260509223036 74 0 0.0 1.0 0.00 0.00 0.00 55 1008.2
20260509221538 75 0 0.0 2.0 0.00 0.00 0.00 52 1008.1
20260509220041 77 299 0.0 2.0 0.00 0.00 0.00 51 1008.2
20260509214557 77 0 0.0 2.0 0.00 0.00 0.00 52 1008.1
20260509213040 77 0 0.0 5.0 0.00 0.00 0.00 51 1008.0
20260509211539 77 298 0.0 3.0 0.00 0.00 0.00 50 1008.0
20260509210044 76 290 0.0 2.0 0.00 0.00 0.00 51 1007.8
20260509204546 77 0 0.0 5.0 0.00 0.00 0.00 51 1007.7
20260509203053 76 0 0.0 2.0 0.00 0.00 0.00 52 1007.9
20260509201541 74 0 0.0 2.0 0.00 0.00 0.00 55 1008.0
20260509200041 73 0 0.0 2.0 0.00 0.00 0.00 56 1008.2
20260509194541 73 0 0.0 3.0 0.00 0.00 0.00 55 1008.5
20260509193038 73 0 0.0 3.0 0.00 0.00 0.00 55 1008.7